Weather History for KMWM - February, 2013

Change the Weather History Date:

Saturday, February 23, 2013

  Actual Average Record
Temperature  
Mean Temperature 14 °F -  
Max Temperature 26 °F 34 °F 62 °F (1958)
Min Temperature 1 °F 14 °F -13 °F (1989)
Degree Days  
Heating Degree Days 52    
Moisture  
Dew Point 8 °F    
Average Humidity 81    
Maximum Humidity 93    
Minimum Humidity 54    
Precipitation  
Precipitation 0.00 in - - ()
Sea Level Pressure  
Sea Level Pressure 29.86 in    
Wind  
Wind Speed 3 mph (West)    
Max Wind Speed 8 mph    
Max Gust Speed -    
Visibility 10 miles    
Events Snow    
Averages and records for this station are not official NWS values.
T = Trace of Precipitation, MM = Missing Value Source: NWS Daily Summary

Daily Weather History Graph

Daily Weather History Graph

Search for Another Location

Airport or City:

Trip Planner

Search our weather history database for the weather conditions in past years. The results will help you decide how hot, cold, wet, or windy it might be!

Date:

Astronomy

Feb. 23, 2013 Rise Set
Actual Time 7:06 AM CST 6:01 PM CST
Civil Twilight 6:37 AM CST 6:30 PM CST
Nautical Twilight 6:04 AM CST 7:04 PM CST
Astronomical Twilight 5:30 AM CST 7:37 PM CST
Moon 4:10 PM CST (2/23) 5:32 AM CST (2/23)
Length of Visible Light 11h 53m
Length of Day
10h 54m
Waxing Gibbous, 95% of the Moon is Illuminated
Feb 23
Waxing Gibbous
Feb 25
Full
Mar 4
Last Quarter
Mar 11
New
Mar 19
First Quarter

Hourly Weather History & Observations

Time (CST) Temp. Windchill Dew Point Humidity Pressure Visibility Wind Dir Wind Speed Gust Speed Precip Events Conditions
12:13 AM 15.8 °F 8.6 °F 12.2 °F 86% 29.89 in 10.0 mi West 4.6 mph - N/A   Overcast
12:32 AM 15.8 °F 8.6 °F 12.2 °F 86% 29.89 in 10.0 mi West 4.6 mph - N/A Snow Light Snow
12:52 AM 14.0 °F 2.9 °F 12.2 °F 93% 29.88 in 10.0 mi West 8.1 mph - N/A   Overcast
1:13 AM 12.2 °F 4.3 °F 10.4 °F 92% 29.89 in 10.0 mi West 4.6 mph - N/A   Overcast
1:32 AM 12.2 °F 4.3 °F 10.4 °F 92% 29.88 in 10.0 mi West 4.6 mph - N/A   Mostly Cloudy
1:52 AM 10.4 °F - 8.6 °F 92% 29.88 in 10.0 mi Calm Calm - N/A   Mostly Cloudy
2:13 AM 10.4 °F 4.0 °F 8.6 °F 92% 29.88 in 10.0 mi WSW 3.5 mph - N/A   Overcast
2:32 AM 8.6 °F -1.3 °F 6.8 °F 92% 29.88 in 10.0 mi WSW 5.8 mph - N/A Snow Light Snow
2:52 AM 6.8 °F -5.9 °F 5.0 °F 92% 29.88 in 10.0 mi WSW 8.1 mph - N/A   Scattered Clouds
3:13 AM 6.8 °F -3.5 °F 5.0 °F 92% 29.87 in 10.0 mi West 5.8 mph - N/A   Scattered Clouds
3:32 AM 5.0 °F -5.6 °F 3.2 °F 92% 29.87 in 10.0 mi WSW 5.8 mph - N/A   Scattered Clouds
3:52 AM 5.0 °F -5.6 °F 1.4 °F 85% 29.86 in 10.0 mi West 5.8 mph - N/A   Clear
4:13 AM 3.2 °F -10.3 °F 1.4 °F 92% 29.86 in 10.0 mi WSW 8.1 mph - N/A   Clear
4:32 AM 3.2 °F -6.2 °F -0.4 °F 85% 29.85 in 10.0 mi West 4.6 mph - N/A   Clear
4:52 AM 1.4 °F -9.9 °F -0.4 °F 92% 29.85 in 10.0 mi WSW 5.8 mph - N/A   Clear
5:13 AM 1.4 °F -8.3 °F -2.2 °F 85% 29.85 in 10.0 mi West 4.6 mph - N/A   Clear
5:32 AM 1.4 °F - -0.4 °F 92% 29.85 in 10.0 mi Calm Calm - N/A   Clear
5:52 AM 1.4 °F -9.9 °F -0.4 °F 92% 29.86 in 10.0 mi West 5.8 mph - N/A   Clear
6:13 AM 1.4 °F - -0.4 °F 92% 29.86 in 10.0 mi Calm Calm - N/A   Clear
6:32 AM 3.2 °F - -0.4 °F 85% 29.86 in 10.0 mi Calm Calm - N/A   Clear
6:52 AM 3.2 °F - -0.4 °F 85% 29.86 in 7.0 mi Calm Calm - N/A   Clear
7:12 AM 1.4 °F - -0.4 °F 92% 29.86 in 5.0 mi Calm Calm - N/A   Clear
7:32 AM 1.4 °F - -0.4 °F 92% 29.86 in 10.0 mi Calm Calm - N/A   Clear
7:53 AM 3.2 °F - -0.4 °F 85% 29.86 in 10.0 mi Calm Calm - N/A   Clear
8:12 AM 3.2 °F - 1.4 °F 92% 29.86 in 7.0 mi Calm Calm - N/A   Clear
8:53 AM 6.8 °F - 5.0 °F 92% 29.86 in 10.0 mi Calm Calm - N/A   Clear
9:12 AM 8.6 °F - 6.8 °F 92% 29.86 in 10.0 mi Calm Calm - N/A   Clear
9:32 AM 10.4 °F - 6.8 °F 85% 29.86 in 10.0 mi Calm Calm - N/A   Clear
9:53 AM 12.2 °F - 10.4 °F 92% 29.86 in 10.0 mi Calm Calm - N/A   Clear
10:12 AM 14.0 °F 8.2 °F 8.6 °F 79% 29.86 in 10.0 mi WSW 3.5 mph - N/A   Clear
10:32 AM 15.8 °F - 8.6 °F 73% 29.86 in 10.0 mi Calm Calm - N/A   Clear
10:53 AM 17.6 °F - 10.4 °F 73% 29.86 in 10.0 mi Calm Calm - N/A   Clear
11:12 AM 19.4 °F - 10.4 °F 68% 29.86 in 10.0 mi Calm Calm - N/A   Clear
11:32 AM 21.2 °F - 10.4 °F 63% 29.86 in 10.0 mi Calm Calm - N/A   Clear
11:53 AM 21.2 °F - 10.4 °F 63% 29.86 in 10.0 mi Calm Calm - N/A   Clear
12:12 PM 23.0 °F - 12.2 °F 63% 29.86 in 10.0 mi Calm Calm - N/A   Clear
12:32 PM 24.8 °F - 12.2 °F 59% 29.86 in 10.0 mi Calm Calm - N/A   Clear
12:53 PM 24.8 °F - 10.4 °F 54% 29.85 in 10.0 mi Calm Calm - N/A   Clear
1:12 PM 24.8 °F - 12.2 °F 59% 29.85 in 10.0 mi Calm Calm - N/A   Clear
1:32 PM 26.6 °F - 12.2 °F 55% 29.85 in 10.0 mi Calm Calm - N/A   Clear
1:53 PM 24.8 °F - 12.2 °F 59% 29.85 in 10.0 mi Calm Calm - N/A   Clear
2:12 PM 24.8 °F - 12.2 °F 59% 29.85 in 10.0 mi Calm Calm - N/A   Clear
2:32 PM 24.8 °F - 12.2 °F 59% 29.85 in 10.0 mi Calm Calm - N/A   Clear
2:53 PM 24.8 °F - 12.2 °F 59% 29.84 in 10.0 mi Calm Calm - N/A   Clear
3:13 PM 24.8 °F - 12.2 °F 59% 29.84 in 10.0 mi Calm Calm - N/A   Clear
3:32 PM 24.8 °F - 12.2 °F 59% 29.84 in 10.0 mi Calm Calm - N/A   Clear
3:53 PM 24.8 °F - 12.2 °F 59% 29.84 in 10.0 mi Calm Calm - N/A   Clear
4:13 PM 24.8 °F - 10.4 °F 54% 29.84 in 10.0 mi Calm Calm - N/A   Clear
4:32 PM 24.8 °F - 10.4 °F 54% 29.83 in 10.0 mi Calm Calm - N/A   Clear
4:53 PM 24.8 °F - 12.2 °F 59% 29.83 in 10.0 mi Calm Calm - N/A   Clear
5:13 PM 24.8 °F - 15.8 °F 69% 29.83 in 10.0 mi Calm Calm - N/A   Clear
5:32 PM 21.2 °F - 15.8 °F 80% 29.84 in 10.0 mi Calm Calm - N/A   Clear
5:53 PM 19.4 °F - 15.8 °F 86% 29.84 in 10.0 mi Calm Calm - N/A   Clear
6:12 PM 17.6 °F - 14.0 °F 86% 29.84 in 10.0 mi Calm Calm - N/A   Clear
6:32 PM 17.6 °F - 12.2 °F 79% 29.85 in 10.0 mi Calm Calm - N/A   Clear
6:53 PM 17.6 °F - 12.2 °F 79% 29.86 in 10.0 mi Calm Calm - N/A   Clear
7:12 PM 12.2 °F - 8.6 °F 85% 29.85 in 10.0 mi Calm Calm - N/A   Clear
7:32 PM 10.4 °F - 8.6 °F 92% 29.86 in 10.0 mi Calm Calm - N/A   Clear
7:53 PM 10.4 °F - 8.6 °F 92% 29.86 in 10.0 mi Calm Calm - N/A   Clear
8:12 PM 10.4 °F - 8.6 °F 92% 29.87 in 10.0 mi Calm Calm - N/A   Clear
8:32 PM 10.4 °F - 8.6 °F 92% 29.87 in 10.0 mi Calm Calm - N/A   Clear
8:53 PM 10.4 °F - 8.6 °F 92% 29.88 in 10.0 mi Calm Calm - N/A   Clear
9:12 PM 8.6 °F - 6.8 °F 92% 29.88 in 10.0 mi Calm Calm - N/A   Clear
9:32 PM 10.4 °F - 8.6 °F 92% 29.89 in 10.0 mi Calm Calm - N/A   Clear
9:53 PM 8.6 °F - 6.8 °F 92% 29.90 in 10.0 mi Calm Calm - N/A   Clear
10:12 PM 8.6 °F - 6.8 °F 92% 29.90 in 10.0 mi Calm Calm - N/A   Clear
10:33 PM 8.6 °F - 6.8 °F 92% 29.90 in 7.0 mi Calm Calm - N/A   Clear
10:53 PM 5.0 °F - 1.4 °F 85% 29.89 in 7.0 mi Calm Calm - N/A   Clear
11:12 PM 6.8 °F - 5.0 °F 92% 29.89 in 7.0 mi Calm Calm - N/A   Clear
11:33 PM 8.6 °F - 6.8 °F 92% 29.90 in 5.0 mi Calm Calm - N/A   Clear
11:53 PM 8.6 °F - 6.8 °F 92% 29.90 in 1.8 mi Calm Calm - N/A   Mostly Cloudy